TimeCDT,TemperatureF,Dew PointF,Humidity,Sea Level PressureIn,VisibilityMPH,Wind Direction,Wind SpeedMPH,Gust SpeedMPH,PrecipitationIn,Events,Conditions,WindDirDegrees,DateUTC
12:01 AM,39.2,37.4,93,29.43,0.5,Calm,Calm,-,N/A,Fog,Fog,0,2012-10-17 05:01:00
12:44 AM,42.8,41.0,93,29.43,0.2,Calm,Calm,-,N/A,Fog,Fog,0,2012-10-17 05:44:00
12:53 AM,42.1,41.0,96,29.44,0.2,Calm,Calm,-,N/A,Fog,Fog,0,2012-10-17 05:53:00
1:00 AM,42.8,41.0,93,29.42,0.5,Calm,Calm,-,N/A,Fog,Fog,0,2012-10-17 06:00:00
1:08 AM,42.8,42.8,100,29.42,0.2,Calm,Calm,-,N/A,Fog,Fog,0,2012-10-17 06:08:00
1:18 AM,41.0,41.0,100,29.42,0.5,Calm,Calm,-,N/A,Fog,Fog,0,2012-10-17 06:18:00
1:37 AM,37.4,37.4,100,29.41,0.2,Calm,Calm,-,N/A,Fog,Fog,0,2012-10-17 06:37:00
1:51 AM,39.2,37.4,93,29.41,1.0,Calm,Calm,-,N/A,,Mist,0,2012-10-17 06:51:00
1:52 AM,39.0,37.9,96,29.43,1.2,Calm,Calm,-,N/A,,Partly Cloudy,0,2012-10-17 06:52:00
2:09 AM,37.4,37.4,100,29.41,3.0,Calm,Calm,-,N/A,,Clear,0,2012-10-17 07:09:00
2:14 AM,37.4,37.4,100,29.41,1.8,Calm,Calm,-,N/A,,Clear,0,2012-10-17 07:14:00
2:25 AM,37.4,37.4,100,29.41,0.5,East,3.5,-,N/A,Fog,Fog,80,2012-10-17 07:25:00
2:34 AM,37.4,37.4,100,29.41,0.2,East,3.5,-,N/A,Fog,Fog,80,2012-10-17 07:34:00
2:53 AM,41.0,39.0,93,29.39,0.8,East,6.9,-,N/A,,Clear,90,2012-10-17 07:53:00
2:59 AM,42.8,41.0,93,29.38,2.5,East,4.6,-,N/A,,Clear,100,2012-10-17 07:59:00
3:50 AM,39.2,39.2,100,29.37,2.5,West,3.5,-,N/A,,Partly Cloudy,260,2012-10-17 08:50:00
3:53 AM,39.0,37.9,96,29.38,1.5,West,3.5,-,N/A,,Scattered Clouds,260,2012-10-17 08:53:00
3:58 AM,37.4,37.4,100,29.37,0.8,West,3.5,-,N/A,,Mist,270,2012-10-17 08:58:00
4:22 AM,37.4,37.4,100,29.36,2.0,Calm,Calm,-,N/A,,Mostly Cloudy,0,2012-10-17 09:22:00
4:28 AM,37.4,37.4,100,29.36,5.0,Calm,Calm,-,N/A,,Scattered Clouds,0,2012-10-17 09:28:00
4:41 AM,37.4,35.6,93,29.36,1.8,Calm,Calm,-,N/A,,Partly Cloudy,0,2012-10-17 09:41:00
4:50 AM,37.4,37.4,100,29.36,3.0,Calm,Calm,-,N/A,,Clear,0,2012-10-17 09:50:00
4:53 AM,37.0,36.0,96,29.37,5.0,Calm,Calm,-,N/A,,Clear,0,2012-10-17 09:53:00
5:53 AM,42.1,41.0,96,29.38,6.0,Calm,Calm,-,N/A,,Overcast,0,2012-10-17 10:53:00
6:53 AM,44.1,43.0,96,29.36,9.0,Calm,Calm,-,N/A,,Overcast,0,2012-10-17 11:53:00
7:53 AM,43.0,42.1,97,29.34,3.0,Calm,Calm,-,N/A,,Partly Cloudy,0,2012-10-17 12:53:00
8:05 AM,42.8,42.8,100,29.32,2.5,Calm,Calm,-,N/A,,Scattered Clouds,0,2012-10-17 13:05:00
8:18 AM,44.6,42.8,93,29.32,3.0,East,3.5,-,N/A,,Mostly Cloudy,80,2012-10-17 13:18:00
8:53 AM,48.0,46.0,93,29.32,5.0,ENE,3.5,-,N/A,,Partly Cloudy,70,2012-10-17 13:53:00
9:53 AM,50.0,46.9,89,29.30,7.0,ENE,3.5,-,N/A,,Clear,70,2012-10-17 14:53:00
10:53 AM,55.0,48.9,80,29.27,10.0,ENE,6.9,-,N/A,,Mostly Cloudy,60,2012-10-17 15:53:00
11:53 AM,53.1,48.0,83,29.26,8.0,NNE,4.6,-,0.00,Rain,Light Rain,20,2012-10-17 16:53:00
12:53 PM,55.9,50.0,80,29.22,10.0,NE,8.1,-,0.00,,Overcast,50,2012-10-17 17:53:00
1:53 PM,55.9,48.9,77,29.20,10.0,North,5.8,-,N/A,,Overcast,10,2012-10-17 18:53:00
2:53 PM,55.9,48.9,77,29.20,10.0,Calm,Calm,-,N/A,,Scattered Clouds,0,2012-10-17 19:53:00
3:53 PM,64.0,50.0,60,29.20,10.0,SSW,8.1,17.3,N/A,,Overcast,200,2012-10-17 20:53:00
4:53 PM,62.1,51.1,67,29.21,10.0,South,11.5,18.4,N/A,,Overcast,190,2012-10-17 21:53:00
5:50 PM,60.8,51.8,72,29.22,10.0,South,6.9,-,N/A,,Overcast,190,2012-10-17 22:50:00
5:53 PM,60.1,51.1,72,29.23,10.0,South,10.4,-,N/A,,Overcast,190,2012-10-17 22:53:00
6:40 PM,59.0,48.2,67,29.23,10.0,SW,15.0,21.9,N/A,,Mostly Cloudy,230,2012-10-17 23:40:00
6:50 PM,57.2,48.2,72,29.24,10.0,SW,11.5,-,N/A,,Scattered Clouds,230,2012-10-17 23:50:00
6:53 PM,57.0,48.9,74,29.25,10.0,SW,9.2,-,N/A,,Mostly Cloudy,230,2012-10-17 23:53:00
7:53 PM,55.9,48.0,75,29.26,10.0,SSW,9.2,-,N/A,,Mostly Cloudy,210,2012-10-18 00:53:00
8:53 PM,54.0,46.9,77,29.27,10.0,SW,5.8,-,N/A,,Overcast,220,2012-10-18 01:53:00
9:53 PM,54.0,46.0,75,29.28,10.0,SW,5.8,-,N/A,,Overcast,220,2012-10-18 02:53:00
10:53 PM,53.1,45.0,74,29.26,10.0,SW,4.6,-,N/A,,Overcast,230,2012-10-18 03:53:00
11:53 PM,53.1,45.0,74,29.23,10.0,Calm,Calm,-,N/A,,Overcast,0,2012-10-18 04:53:00